Time,TemperatureF,DewpointF,PressureIn,WindDirection,WindDirectionDegrees,WindSpeedMPH,WindSpeedGustMPH,Humidity,HourlyPrecipIn,Conditions,Clouds,dailyrainin,SolarRadiationWatts/m^2,SoftwareType,DateUTC
2013-03-08 00:00:00,30.0,26.0,30.31,East,101,0.0,0.0,85,0.00,,,0.00,0,Wunderground v.1.15,2013-03-08 06:00:00,
2013-03-08 00:10:00,29.8,26.1,30.31,East,101,0.0,0.0,86,0.00,,,0.00,0,Wunderground v.1.15,2013-03-08 06:10:00,
2013-03-08 00:20:00,29.4,26.0,30.31,East,101,0.0,0.0,87,0.00,,,0.00,0,Wunderground v.1.15,2013-03-08 06:20:00,
2013-03-08 00:30:00,29.1,26.0,30.31,East,101,0.0,2.0,88,0.00,,,0.00,0,Wunderground v.1.15,2013-03-08 06:30:00,
2013-03-08 00:40:00,29.0,25.9,30.31,East,84,0.0,0.0,88,0.00,,,0.00,0,Wunderground v.1.15,2013-03-08 06:40:00,
2013-03-08 00:50:00,29.0,26.2,30.31,East,84,0.0,0.0,89,0.00,,,0.00,0,Wunderground v.1.15,2013-03-08 06:50:00,
2013-03-08 01:00:00,29.0,25.9,30.32,East,84,0.0,0.0,88,0.00,,,0.00,0,Wunderground v.1.15,2013-03-08 07:00:00,
2013-03-08 01:10:00,29.0,25.9,30.32,East,84,0.0,0.0,88,0.00,,,0.00,0,Wunderground v.1.15,2013-03-08 07:10:00,
2013-03-08 01:20:00,28.8,25.7,30.32,East,84,0.0,0.0,88,0.00,,,0.00,0,Wunderground v.1.15,2013-03-08 07:20:00,
2013-03-08 01:30:00,28.3,25.2,30.32,East,84,0.0,0.0,88,0.00,,,0.00,0,Wunderground v.1.15,2013-03-08 07:30:00,
2013-03-08 01:40:00,28.1,25.5,30.32,East,84,0.0,0.0,90,0.00,,,0.00,0,Wunderground v.1.15,2013-03-08 07:40:00,
2013-03-08 01:50:00,27.9,25.3,30.32,East,84,0.0,0.0,90,0.00,,,0.00,0,Wunderground v.1.15,2013-03-08 07:50:00,
2013-03-08 02:00:00,27.8,25.2,30.32,East,84,0.0,0.0,90,0.00,,,0.00,0,Wunderground v.1.15,2013-03-08 08:00:00,
2013-03-08 02:10:00,27.7,25.4,30.32,East,84,0.0,0.0,91,0.00,,,0.00,0,Wunderground v.1.15,2013-03-08 08:10:00,
2013-03-08 02:20:00,27.5,25.2,30.32,East,84,0.0,0.0,91,0.00,,,0.00,0,Wunderground v.1.15,2013-03-08 08:20:00,
2013-03-08 02:30:00,27.2,24.7,30.32,East,84,0.0,0.0,90,0.00,,,0.00,0,Wunderground v.1.15,2013-03-08 08:30:00,
2013-03-08 02:40:00,26.9,24.6,30.32,East,84,0.0,0.0,91,0.00,,,0.00,0,Wunderground v.1.15,2013-03-08 08:40:00,
2013-03-08 02:50:00,26.6,24.3,30.31,East,84,0.0,0.0,91,0.00,,,0.00,0,Wunderground v.1.15,2013-03-08 08:50:00,
2013-03-08 03:00:00,26.4,24.4,30.31,ENE,72,0.0,0.0,92,0.00,,,0.00,0,Wunderground v.1.15,2013-03-08 09:00:00,
2013-03-08 03:10:00,27.1,25.3,30.31,ENE,74,1.0,2.0,93,0.00,,,0.00,0,Wunderground v.1.15,2013-03-08 09:10:00,
2013-03-08 03:20:00,27.6,25.3,30.31,ENE,74,1.0,1.0,91,0.00,,,0.00,0,Wunderground v.1.15,2013-03-08 09:20:00,
2013-03-08 03:30:00,27.8,25.5,30.32,ENE,74,0.0,0.0,91,0.00,,,0.00,0,Wunderground v.1.15,2013-03-08 09:30:00,
2013-03-08 03:40:00,27.8,25.5,30.32,ENE,74,0.0,0.0,91,0.00,,,0.00,0,Wunderground v.1.15,2013-03-08 09:40:00,
2013-03-08 03:50:00,27.8,25.5,30.33,ENE,74,0.0,0.0,91,0.00,,,0.00,0,Wunderground v.1.15,2013-03-08 09:50:00,
2013-03-08 04:00:00,27.7,25.4,30.33,ENE,74,0.0,0.0,91,0.00,,,0.00,0,Wunderground v.1.15,2013-03-08 10:00:00,
2013-03-08 04:10:00,27.4,25.1,30.33,ENE,74,0.0,0.0,91,0.00,,,0.00,0,Wunderground v.1.15,2013-03-08 10:10:00,
2013-03-08 04:20:00,27.1,24.8,30.33,ENE,74,0.0,0.0,91,0.00,,,0.00,0,Wunderground v.1.15,2013-03-08 10:20:00,
2013-03-08 04:30:00,26.9,24.9,30.33,ENE,74,0.0,0.0,92,0.00,,,0.00,0,Wunderground v.1.15,2013-03-08 10:30:00,
2013-03-08 04:40:00,27.0,25.0,30.33,ENE,74,0.0,0.0,92,0.00,,,0.00,0,Wunderground v.1.15,2013-03-08 10:40:00,
2013-03-08 04:50:00,26.9,24.9,30.34,ENE,74,0.0,0.0,92,0.00,,,0.00,0,Wunderground v.1.15,2013-03-08 10:50:00,
2013-03-08 05:00:00,26.7,24.7,30.34,ENE,74,0.0,0.0,92,0.00,,,0.00,0,Wunderground v.1.15,2013-03-08 11:00:00,
2013-03-08 05:10:00,26.3,24.3,30.34,ENE,74,0.0,0.0,92,0.00,,,0.00,0,Wunderground v.1.15,2013-03-08 11:10:00,
2013-03-08 05:20:00,26.1,24.1,30.34,ENE,74,0.0,0.0,92,0.00,,,0.00,0,Wunderground v.1.15,2013-03-08 11:20:00,
2013-03-08 05:30:00,26.3,24.6,30.33,ENE,74,0.0,0.0,93,0.00,,,0.00,0,Wunderground v.1.15,2013-03-08 11:30:00,
2013-03-08 05:40:00,26.5,24.8,30.34,ENE,74,0.0,0.0,93,0.00,,,0.00,0,Wunderground v.1.15,2013-03-08 11:40:00,
2013-03-08 05:50:00,26.6,24.8,30.34,ENE,74,0.0,0.0,93,0.00,,,0.00,0,Wunderground v.1.15,2013-03-08 11:50:00,
2013-03-08 06:00:00,26.7,24.9,30.34,ENE,74,0.0,0.0,93,0.00,,,0.00,0,Wunderground v.1.15,2013-03-08 12:00:00,
2013-03-08 06:10:00,26.5,24.8,30.34,ENE,63,0.0,0.0,93,0.00,,,0.00,5,Wunderground v.1.15,2013-03-08 12:10:00,
2013-03-08 06:20:00,26.7,24.9,30.35,ENE,63,0.0,0.0,93,0.00,,,0.00,11,Wunderground v.1.15,2013-03-08 12:20:00,
2013-03-08 06:30:00,27.2,25.4,30.35,East,86,1.0,1.0,93,0.00,,,0.00,19,Wunderground v.1.15,2013-03-08 12:30:00,
2013-03-08 06:40:00,27.7,25.7,30.34,NE,50,1.0,1.0,92,0.00,,,0.00,32,Wunderground v.1.15,2013-03-08 12:40:00,
2013-03-08 06:50:00,28.1,25.8,30.34,NE,51,1.0,2.0,91,0.00,,,0.00,44,Wunderground v.1.15,2013-03-08 12:50:00,
2013-03-08 07:00:00,28.7,26.1,30.34,East,91,2.0,2.0,90,0.00,,,0.00,65,Wunderground v.1.15,2013-03-08 13:00:00,
2013-03-08 07:10:00,29.4,26.6,30.35,East,82,2.0,2.0,89,0.00,,,0.00,167,Wunderground v.1.15,2013-03-08 13:10:00,
2013-03-08 07:30:00,31.2,27.5,30.36,NNE,15,2.0,5.0,86,0.00,,,0.00,241,Wunderground v.1.15,2013-03-08 13:30:00,
2013-03-08 07:50:00,32.5,27.9,30.36,East,92,3.0,7.0,83,0.00,,,0.00,295,Wunderground v.1.15,2013-03-08 13:50:00,
2013-03-08 08:10:00,33.5,28.0,30.37,ESE,103,4.0,4.0,80,0.00,,,0.00,353,Wunderground v.1.15,2013-03-08 14:10:00,
2013-03-08 09:00:00,37.8,30.3,30.38,ENE,72,2.0,2.0,74,0.00,,,0.00,503,Wunderground v.1.15,2013-03-08 15:00:00,
2013-03-08 09:20:00,38.8,30.2,30.37,NNE,16,2.0,2.0,71,0.00,,,0.00,557,Wunderground v.1.15,2013-03-08 15:20:00,
2013-03-08 09:30:00,39.2,30.2,30.38,ENE,70,2.0,3.0,70,0.00,,,0.00,582,Wunderground v.1.15,2013-03-08 15:30:00,
2013-03-08 09:40:00,39.8,30.1,30.38,ENE,59,2.0,3.0,68,0.00,,,0.00,605,Wunderground v.1.15,2013-03-08 15:40:00,
2013-03-08 10:00:00,41.0,30.5,30.38,East,97,1.0,1.0,66,0.00,,,0.00,647,Wunderground v.1.15,2013-03-08 16:00:00,
2013-03-08 10:40:00,44.8,29.2,30.38,North,5,2.0,2.0,54,0.00,,,0.00,712,Wunderground v.1.15,2013-03-08 16:40:00,
2013-03-08 11:00:00,46.0,28.4,30.37,ESE,118,3.0,3.0,50,0.00,,,0.00,738,Wunderground v.1.15,2013-03-08 17:00:00,
2013-03-08 11:30:00,48.7,29.4,30.34,North,350,3.0,3.0,47,0.00,,,0.00,759,Wunderground v.1.15,2013-03-08 17:30:00,
2013-03-08 11:40:00,49.4,27.8,30.34,ESE,117,3.0,4.0,43,0.00,,,0.00,766,Wunderground v.1.15,2013-03-08 17:40:00,
2013-03-08 12:00:00,50.3,29.2,30.33,ESE,113,2.0,2.0,44,0.00,,,0.00,768,Wunderground v.1.15,2013-03-08 18:00:00,
2013-03-08 12:10:00,50.8,28.5,30.33,ENE,59,3.0,3.0,42,0.00,,,0.00,770,Wunderground v.1.15,2013-03-08 18:10:00,
2013-03-08 12:20:00,51.6,29.2,30.33,NE,54,2.0,3.0,42,0.00,,,0.00,765,Wunderground v.1.15,2013-03-08 18:20:00,
2013-03-08 12:30:00,52.3,28.1,30.32,ENE,63,2.0,2.0,39,0.00,,,0.00,763,Wunderground v.1.15,2013-03-08 18:30:00,
2013-03-08 12:40:00,52.9,28.0,30.32,NNE,13,3.0,3.0,38,0.00,,,0.00,756,Wunderground v.1.15,2013-03-08 18:40:00,
2013-03-08 12:50:00,53.4,26.4,30.31,South,169,2.0,2.0,35,0.00,,,0.00,749,Wunderground v.1.15,2013-03-08 18:50:00,
2013-03-08 13:00:00,54.2,24.9,30.30,North,5,2.0,3.0,32,0.00,,,0.00,738,Wunderground v.1.15,2013-03-08 19:00:00,
2013-03-08 13:10:00,54.9,26.3,30.28,East,83,3.0,3.0,33,0.00,,,0.00,729,Wunderground v.1.15,2013-03-08 19:10:00,
2013-03-08 13:40:00,56.0,24.2,30.27,East,86,4.0,5.0,29,0.00,,,0.00,686,Wunderground v.1.15,2013-03-08 19:40:00,
2013-03-08 14:10:00,56.8,21.3,30.27,ENE,68,3.0,3.0,25,0.00,,,0.00,629,Wunderground v.1.15,2013-03-08 20:10:00,
2013-03-08 15:00:00,57.7,23.0,30.26,ENE,77,3.0,3.0,26,0.00,,,0.00,503,Wunderground v.1.15,2013-03-08 21:00:00,
2013-03-08 16:10:00,57.6,22.9,30.25,ENE,78,2.0,2.0,26,0.00,,,0.00,262,Wunderground v.1.15,2013-03-08 22:10:00,
2013-03-08 16:20:00,57.6,19.0,30.25,ESE,107,2.0,3.0,22,0.00,,,0.00,183,Wunderground v.1.15,2013-03-08 22:20:00,
2013-03-08 16:30:00,57.3,17.6,30.26,East,90,3.0,3.0,21,0.00,,,0.00,183,Wunderground v.1.15,2013-03-08 22:30:00,
2013-03-08 16:40:00,57.4,20.9,30.25,East,98,1.0,2.0,24,0.00,,,0.00,195,Wunderground v.1.15,2013-03-08 22:40:00,
2013-03-08 16:50:00,57.1,17.5,30.25,East,86,2.0,3.0,21,0.00,,,0.00,130,Wunderground v.1.15,2013-03-08 22:50:00,
2013-03-08 17:00:00,56.7,17.1,30.26,NE,50,2.0,4.0,21,0.00,,,0.00,53,Wunderground v.1.15,2013-03-08 23:00:00,
2013-03-08 17:10:00,56.2,19.8,30.25,NE,51,2.0,3.0,24,0.00,,,0.00,33,Wunderground v.1.15,2013-03-08 23:10:00,
2013-03-08 17:20:00,55.7,19.4,30.26,ENE,65,1.0,1.0,24,0.00,,,0.00,26,Wunderground v.1.15,2013-03-08 23:20:00,
2013-03-08 17:30:00,55.3,20.0,30.26,ENE,67,1.0,1.0,25,0.00,,,0.00,16,Wunderground v.1.15,2013-03-08 23:30:00,
2013-03-08 17:40:00,54.5,20.3,30.26,ENE,67,0.0,0.0,26,0.00,,,0.00,9,Wunderground v.1.15,2013-03-08 23:40:00,
2013-03-08 17:50:00,53.7,23.0,30.26,ENE,67,0.0,0.0,30,0.00,,,0.00,0,Wunderground v.1.15,2013-03-08 23:50:00,
2013-03-08 18:00:00,52.7,20.5,30.26,ENE,67,0.0,0.0,28,0.00,,,0.00,0,Wunderground v.1.15,2013-03-09 00:00:00,
2013-03-08 18:10:00,52.1,20.8,30.26,ENE,67,0.0,0.0,29,0.00,,,0.00,0,Wunderground v.1.15,2013-03-09 00:10:00,
2013-03-08 18:20:00,51.0,23.6,30.25,ENE,67,0.0,0.0,34,0.00,,,0.00,0,Wunderground v.1.15,2013-03-09 00:20:00,
2013-03-08 18:30:00,49.9,20.4,30.25,ENE,67,0.0,1.0,31,0.00,,,0.00,0,Wunderground v.1.15,2013-03-09 00:30:00,
2013-03-08 18:40:00,49.6,20.9,30.25,ENE,67,0.0,0.0,32,0.00,,,0.00,0,Wunderground v.1.15,2013-03-09 00:40:00,
2013-03-08 18:50:00,49.4,20.7,30.25,East,88,1.0,2.0,32,0.00,,,0.00,0,Wunderground v.1.15,2013-03-09 00:50:00,
2013-03-08 19:00:00,49.4,20.0,30.25,ENE,72,0.0,0.0,31,0.00,,,0.00,0,Wunderground v.1.15,2013-03-09 01:00:00,
2013-03-08 19:10:00,49.2,20.6,30.25,East,88,1.0,1.0,32,0.00,,,0.00,0,Wunderground v.1.15,2013-03-09 01:10:00,
2013-03-08 19:20:00,48.5,19.9,30.25,East,88,0.0,0.0,32,0.00,,,0.00,0,Wunderground v.1.15,2013-03-09 01:20:00,
2013-03-08 19:30:00,48.1,20.3,30.24,East,88,0.0,2.0,33,0.00,,,0.00,0,Wunderground v.1.15,2013-03-09 01:30:00,
2013-03-08 19:40:00,47.6,20.6,30.24,East,87,0.0,0.0,34,0.00,,,0.00,0,Wunderground v.1.15,2013-03-09 01:40:00,
2013-03-08 19:50:00,47.0,22.7,30.24,NE,53,0.0,0.0,38,0.00,,,0.00,0,Wunderground v.1.15,2013-03-09 01:50:00,
2013-03-08 20:00:00,46.6,21.7,30.24,ENE,63,0.0,1.0,37,0.00,,,0.00,0,Wunderground v.1.15,2013-03-09 02:00:00,
2013-03-08 20:10:00,46.2,21.3,30.24,ENE,63,0.0,0.0,37,0.00,,,0.00,0,Wunderground v.1.15,2013-03-09 02:10:00,
2013-03-08 20:20:00,46.0,21.1,30.24,ENE,63,0.0,0.0,37,0.00,,,0.00,0,Wunderground v.1.15,2013-03-09 02:20:00,
2013-03-08 20:30:00,45.8,21.6,30.24,ENE,63,0.0,1.0,38,0.00,,,0.00,0,Wunderground v.1.15,2013-03-09 02:30:00,
2013-03-08 20:40:00,45.6,22.0,30.23,ENE,63,0.0,0.0,39,0.00,,,0.00,0,Wunderground v.1.15,2013-03-09 02:40:00,
2013-03-08 20:50:00,45.2,22.3,30.23,East,98,0.0,2.0,40,0.00,,,0.00,0,Wunderground v.1.15,2013-03-09 02:50:00,
2013-03-08 21:00:00,45.2,22.3,30.23,East,98,0.0,0.0,40,0.00,,,0.00,0,Wunderground v.1.15,2013-03-09 03:00:00,
2013-03-08 21:10:00,45.1,22.8,30.23,East,98,0.0,0.0,41,0.00,,,0.00,0,Wunderground v.1.15,2013-03-09 03:10:00,
2013-03-08 21:20:00,44.8,22.5,30.24,East,98,0.0,0.0,41,0.00,,,0.00,0,Wunderground v.1.15,2013-03-09 03:20:00,
2013-03-08 21:30:00,44.6,23.5,30.24,East,98,0.0,0.0,43,0.00,,,0.00,0,Wunderground v.1.15,2013-03-09 03:30:00,
2013-03-08 21:40:00,44.1,24.1,30.24,East,98,0.0,0.0,45,0.00,,,0.00,0,Wunderground v.1.15,2013-03-09 03:40:00,
2013-03-08 21:50:00,43.6,23.6,30.24,East,98,0.0,0.0,45,0.00,,,0.00,0,Wunderground v.1.15,2013-03-09 03:50:00,
2013-03-08 22:00:00,43.3,24.9,30.24,East,98,0.0,0.0,48,0.00,,,0.00,0,Wunderground v.1.15,2013-03-09 04:00:00,
2013-03-08 22:30:00,42.3,26.4,30.23,East,86,0.0,0.0,53,0.00,,,0.00,0,Wunderground v.1.15,2013-03-09 04:30:00,
2013-03-08 22:40:00,42.0,29.9,30.22,East,86,0.0,0.0,62,0.00,,,0.00,0,Wunderground v.1.15,2013-03-09 04:40:00,
2013-03-08 22:50:00,41.4,26.4,30.22,East,86,0.0,0.0,55,0.00,,,0.00,0,Wunderground v.1.15,2013-03-09 04:50:00,
2013-03-08 23:10:00,41.7,26.3,30.22,ENE,74,0.0,1.0,54,0.00,,,0.00,0,Wunderground v.1.15,2013-03-09 05:10:00,
2013-03-08 23:20:00,42.3,26.4,30.22,East,86,1.0,1.0,53,0.00,,,0.00,0,Wunderground v.1.15,2013-03-09 05:20:00,
2013-03-08 23:30:00,43.0,29.2,30.22,East,85,0.0,1.0,58,0.00,,,0.00,0,Wunderground v.1.15,2013-03-09 05:30:00,